Time,TemperatureF,DewpointF,PressureIn,WindDirection,WindDirectionDegrees,WindSpeedMPH,WindSpeedGustMPH,Humidity,HourlyPrecipIn,Conditions,Clouds,dailyrainin,SolarRadiationWatts/m^2,SoftwareType,DateUTC
2013-08-16 00:01:00,59.0,53.8,30.03,SSW,208,0.8,2.3,83,0.00,SCT,BKN,0.00,0.0,WeatherDisplay:10.37,2013-08-16 04:01:00,
2013-08-16 00:02:00,59.2,54.0,30.03,SSW,196,0.6,2.0,83,0.00,SCT,BKN,0.00,0.0,WeatherDisplay:10.37,2013-08-16 04:02:00,
2013-08-16 00:07:00,59.0,54.2,30.03,SSW,196,1.1,2.3,84,0.00,SCT,BKN,0.00,0.0,WeatherDisplay:10.37,2013-08-16 04:07:00,
2013-08-16 00:12:00,59.2,54.3,30.03,SSW,199,0.6,1.1,84,0.00,SCT,BKN,0.00,0.0,WeatherDisplay:10.37,2013-08-16 04:12:00,
2013-08-16 00:17:00,59.0,54.2,30.03,South,183,1.2,2.3,84,0.00,SCT,BKN,0.00,0.0,WeatherDisplay:10.37,2013-08-16 04:17:00,
2013-08-16 00:22:00,58.8,54.0,30.03,South,188,0.4,2.3,84,0.00,SCT,BKN,0.00,0.0,WeatherDisplay:10.37,2013-08-16 04:22:00,
2013-08-16 00:27:00,58.8,54.0,30.03,South,185,0.3,1.1,84,0.00,SCT,BKN,0.00,0.0,WeatherDisplay:10.37,2013-08-16 04:27:00,
2013-08-16 00:32:00,58.6,53.8,30.03,South,185,0.3,1.1,84,0.00,SCT,BKN,0.00,0.0,WeatherDisplay:10.37,2013-08-16 04:32:00,
2013-08-16 00:37:00,58.5,54.0,30.03,SSW,203,0.4,2.3,85,0.00,SCT,BKN,0.00,0.0,WeatherDisplay:10.37,2013-08-16 04:37:00,
2013-08-16 00:42:00,58.6,54.1,30.03,South,190,0.9,3.5,85,0.00,SCT,BKN,0.00,0.0,WeatherDisplay:10.37,2013-08-16 04:42:00,
2013-08-16 00:47:00,58.6,54.1,30.03,South,184,0.8,2.3,85,0.00,SCT,BKN,0.00,0.0,WeatherDisplay:10.37,2013-08-16 04:47:00,
2013-08-16 00:52:00,58.8,54.3,30.03,SSW,192,1.1,2.3,85,0.00,SCT,BKN,0.00,0.0,WeatherDisplay:10.37,2013-08-16 04:52:00,
2013-08-16 00:57:00,59.0,54.5,30.03,SSW,197,0.4,2.3,85,0.00,SCT,BKN,0.00,0.0,WeatherDisplay:10.37,2013-08-16 04:57:00,
2013-08-16 01:02:00,59.2,54.3,30.02,SSW,199,0.1,1.8,84,0.00,SCT,BKN,0.00,0.0,WeatherDisplay:10.37,2013-08-16 05:02:00,
2013-08-16 01:07:00,58.8,54.0,30.02,SSW,193,0.1,1.1,84,0.00,SCT,BKN,0.00,0.0,WeatherDisplay:10.37,2013-08-16 05:07:00,
2013-08-16 01:12:00,58.8,54.0,30.03,South,186,0.1,1.1,84,0.00,SCT,BKN,0.00,0.0,WeatherDisplay:10.37,2013-08-16 05:12:00,
2013-08-16 01:19:00,58.6,54.1,30.03,South,187,0.1,1.1,85,0.00,SCT,BKN,0.00,0.0,WeatherDisplay:10.37,2013-08-16 05:19:00,
2013-08-16 01:24:00,58.6,54.1,30.02,South,189,0.0,0.0,85,0.00,SCT,BKN,0.00,0.0,WeatherDisplay:10.37,2013-08-16 05:24:00,
2013-08-16 01:29:00,58.3,53.8,30.02,South,191,0.0,0.0,85,0.00,SCT,BKN,0.00,0.0,WeatherDisplay:10.37,2013-08-16 05:29:00,
2013-08-16 01:34:00,57.9,53.8,30.02,South,185,0.1,1.1,86,0.00,SCT,BKN,0.00,0.0,WeatherDisplay:10.37,2013-08-16 05:34:00,
2013-08-16 01:39:00,57.9,53.8,30.02,South,188,0.5,1.1,86,0.00,SCT,BKN,0.00,0.0,WeatherDisplay:10.37,2013-08-16 05:39:00,
2013-08-16 01:44:00,57.9,53.8,30.02,South,191,0.2,1.1,86,0.00,SCT,BKN,0.00,0.0,WeatherDisplay:10.37,2013-08-16 05:44:00,
2013-08-16 01:49:00,57.9,53.8,30.02,South,189,0.7,2.3,86,0.00,SCT,BKN,0.00,0.0,WeatherDisplay:10.37,2013-08-16 05:49:00,
2013-08-16 01:54:00,57.9,54.1,30.02,SSW,193,0.1,1.1,87,0.00,SCT,BKN,0.00,0.0,WeatherDisplay:10.37,2013-08-16 05:54:00,
2013-08-16 01:59:00,57.9,53.8,30.02,SSW,192,0.3,1.1,86,0.00,SCT,BKN,0.00,0.0,WeatherDisplay:10.37,2013-08-16 05:59:00,
2013-08-16 02:04:00,57.9,53.8,30.02,South,191,0.1,0.0,86,0.00,SCT,BKN,0.00,0.0,WeatherDisplay:10.37,2013-08-16 06:04:00,
2013-08-16 02:09:00,57.7,53.9,30.02,SSW,200,0.0,1.1,87,0.00,SCT,BKN,0.00,0.0,WeatherDisplay:10.37,2013-08-16 06:09:00,
2013-08-16 02:14:00,57.7,53.9,30.02,South,190,0.5,2.3,87,0.00,SCT,BKN,0.00,0.0,WeatherDisplay:10.37,2013-08-16 06:14:00,
2013-08-16 02:19:00,57.7,53.9,30.02,South,177,0.2,2.3,87,0.00,SCT,BKN,0.00,0.0,WeatherDisplay:10.37,2013-08-16 06:19:00,
2013-08-16 02:24:00,57.9,54.1,30.02,SSW,193,0.9,2.3,87,0.00,SCT,BKN,0.00,0.0,WeatherDisplay:10.37,2013-08-16 06:24:00,
2013-08-16 02:29:00,57.9,54.1,30.02,South,188,0.3,1.1,87,0.00,SCT,BKN,0.00,0.0,WeatherDisplay:10.37,2013-08-16 06:29:00,
2013-08-16 02:34:00,58.1,54.2,30.02,SSW,193,0.1,1.1,87,0.00,SCT,BKN,0.00,0.0,WeatherDisplay:10.37,2013-08-16 06:34:00,
2013-08-16 02:39:00,57.7,53.6,30.02,South,191,1.3,2.3,86,0.00,SCT,BKN,0.00,0.0,WeatherDisplay:10.37,2013-08-16 06:39:00,
2013-08-16 02:44:00,57.9,53.8,30.02,SSW,195,0.4,1.1,86,0.00,SCT,BKN,0.00,0.0,WeatherDisplay:10.37,2013-08-16 06:44:00,
2013-08-16 02:49:00,57.7,53.9,30.02,South,182,0.7,1.1,87,0.00,SCT,BKN,0.00,0.0,WeatherDisplay:10.37,2013-08-16 06:49:00,
2013-08-16 02:54:00,57.7,53.9,30.02,SSW,195,0.0,2.3,87,0.00,SCT,BKN,0.00,0.0,WeatherDisplay:10.37,2013-08-16 06:54:00,
2013-08-16 02:59:00,57.7,53.9,30.02,South,186,0.1,1.1,87,0.00,SCT,BKN,0.00,0.0,WeatherDisplay:10.37,2013-08-16 06:59:00,
2013-08-16 03:04:00,57.7,53.9,30.02,SSW,192,0.5,1.1,87,0.00,SCT,BKN,0.00,0.0,WeatherDisplay:10.37,2013-08-16 07:04:00,
2013-08-16 03:09:00,57.4,53.5,30.02,SSW,198,0.0,1.1,87,0.00,SCT,BKN,0.00,0.0,WeatherDisplay:10.37,2013-08-16 07:09:00,
2013-08-16 03:14:00,57.4,53.2,30.03,South,189,0.1,1.1,86,0.00,SCT,BKN,0.00,0.0,WeatherDisplay:10.37,2013-08-16 07:14:00,
2013-08-16 03:19:00,57.4,53.2,30.02,South,187,0.0,1.1,86,0.00,SCT,BKN,0.00,0.0,WeatherDisplay:10.37,2013-08-16 07:19:00,
2013-08-16 03:24:00,57.0,53.2,30.03,SSW,192,0.0,0.0,87,0.00,SCT,BKN,0.00,0.0,WeatherDisplay:10.37,2013-08-16 07:24:00,
2013-08-16 03:29:00,56.8,53.0,30.02,SSW,192,0.0,0.0,87,0.00,SCT,BKN,0.00,0.0,WeatherDisplay:10.37,2013-08-16 07:29:00,
2013-08-16 03:34:00,56.8,53.0,30.03,SSW,193,0.1,1.1,87,0.00,SCT,BKN,0.00,0.0,WeatherDisplay:10.37,2013-08-16 07:34:00,
2013-08-16 03:39:00,56.8,53.0,30.03,SSW,192,0.0,0.0,87,0.00,SCT,BKN,0.00,0.0,WeatherDisplay:10.37,2013-08-16 07:39:00,
2013-08-16 03:44:00,56.8,53.0,30.03,South,184,0.4,1.7,87,0.00,SCT,BKN,0.00,0.0,WeatherDisplay:10.37,2013-08-16 07:44:00,
2013-08-16 03:49:00,56.8,53.3,30.03,South,187,0.2,2.3,88,0.00,SCT,BKN,0.00,0.0,WeatherDisplay:10.37,2013-08-16 07:49:00,
2013-08-16 03:54:00,57.0,53.2,30.03,SSW,202,0.0,1.1,87,0.00,SCT,BKN,0.00,0.0,WeatherDisplay:10.37,2013-08-16 07:54:00,
2013-08-16 03:59:00,56.8,53.0,30.03,South,191,0.0,0.0,87,0.00,SCT,BKN,0.00,0.0,WeatherDisplay:10.37,2013-08-16 07:59:00,
2013-08-16 04:04:00,56.8,53.0,30.03,SSW,200,0.1,0.0,87,0.00,SCT,BKN,0.00,0.0,WeatherDisplay:10.37,2013-08-16 08:04:00,
2013-08-16 04:09:00,56.8,53.0,30.03,South,176,0.0,0.0,87,0.00,SCT,BKN,0.00,0.0,WeatherDisplay:10.37,2013-08-16 08:09:00,
2013-08-16 04:14:00,56.8,53.0,30.03,South,172,0.1,1.1,87,0.00,SCT,BKN,0.00,0.0,WeatherDisplay:10.37,2013-08-16 08:14:00,
2013-08-16 04:19:00,56.8,53.0,30.02,South,182,0.0,1.1,87,0.00,SCT,BKN,0.00,0.0,WeatherDisplay:10.37,2013-08-16 08:19:00,
2013-08-16 04:24:00,56.8,53.0,30.03,South,189,0.1,0.0,87,0.00,SCT,BKN,0.00,0.0,WeatherDisplay:10.37,2013-08-16 08:24:00,
2013-08-16 04:29:00,56.8,53.0,30.03,South,180,0.0,1.1,87,0.00,SCT,BKN,0.00,0.0,WeatherDisplay:10.37,2013-08-16 08:29:00,
2013-08-16 04:34:00,56.8,53.0,30.03,South,191,0.0,0.0,87,0.00,SCT,BKN,0.00,0.0,WeatherDisplay:10.37,2013-08-16 08:34:00,
2013-08-16 04:39:00,57.0,53.2,30.03,South,185,0.0,1.1,87,0.00,SCT,BKN,0.00,0.0,WeatherDisplay:10.37,2013-08-16 08:39:00,
2013-08-16 04:44:00,57.2,53.0,30.03,South,189,0.7,1.3,86,0.00,SCT,BKN,0.00,0.0,WeatherDisplay:10.37,2013-08-16 08:44:00,
2013-08-16 04:49:00,57.4,53.2,30.03,South,187,0.3,1.1,86,0.00,SCT,BKN,0.00,0.0,WeatherDisplay:10.37,2013-08-16 08:49:00,
2013-08-16 04:54:00,57.6,53.1,30.03,South,187,0.2,1.1,85,0.00,SCT,BKN,0.00,0.0,WeatherDisplay:10.37,2013-08-16 08:54:00,
2013-08-16 04:59:00,57.7,53.3,30.03,South,182,0.0,1.1,85,0.00,SCT,BKN,0.00,0.0,WeatherDisplay:10.37,2013-08-16 08:59:00,
2013-08-16 05:04:00,57.9,53.4,30.03,South,189,0.0,0.0,85,0.00,SCT,BKN,0.00,0.0,WeatherDisplay:10.37,2013-08-16 09:04:00,
2013-08-16 05:09:00,58.1,53.3,30.03,South,186,0.0,0.0,84,0.00,SCT,BKN,0.00,0.0,WeatherDisplay:10.37,2013-08-16 09:09:00,
2013-08-16 05:14:00,58.3,53.5,30.03,South,191,0.2,1.1,84,0.00,SCT,BKN,0.00,0.0,WeatherDisplay:10.37,2013-08-16 09:14:00,
2013-08-16 05:19:00,58.5,53.6,30.04,South,185,0.0,0.0,84,0.00,SCT,BKN,0.00,0.0,WeatherDisplay:10.37,2013-08-16 09:19:00,
2013-08-16 05:24:00,58.6,53.8,30.04,South,187,0.2,1.1,84,0.00,SCT,BKN,0.00,0.0,WeatherDisplay:10.37,2013-08-16 09:24:00,
2013-08-16 05:29:00,58.6,53.5,30.04,SSW,195,0.0,1.1,83,0.00,SCT,BKN,0.00,0.0,WeatherDisplay:10.37,2013-08-16 09:29:00,
2013-08-16 05:34:00,58.6,53.5,30.04,South,176,0.6,2.3,83,0.00,SCT,BKN,0.00,0.0,WeatherDisplay:10.37,2013-08-16 09:34:00,
2013-08-16 05:39:00,58.8,53.7,30.04,South,190,0.0,0.0,83,0.00,SCT,BKN,0.00,0.0,WeatherDisplay:10.37,2013-08-16 09:39:00,
2013-08-16 05:44:00,58.8,53.3,30.04,SSW,195,0.0,1.1,82,0.00,SCT,BKN,0.00,0.0,WeatherDisplay:10.37,2013-08-16 09:44:00,
2013-08-16 05:49:00,58.8,53.7,30.04,South,189,0.0,0.0,83,0.00,SCT,BKN,0.00,0.0,WeatherDisplay:10.37,2013-08-16 09:49:00,
2013-08-16 05:54:00,58.6,53.2,30.04,South,184,0.0,1.0,82,0.00,SCT,BKN,0.00,0.0,WeatherDisplay:10.37,2013-08-16 09:54:00,
2013-08-16 05:59:00,58.6,52.8,30.04,SSW,195,0.0,0.0,81,0.00,SCT,BKN,0.00,0.0,WeatherDisplay:10.37,2013-08-16 09:59:00,
2013-08-16 06:04:00,58.5,53.0,30.04,South,185,0.1,0.0,82,0.00,SCT,BKN,0.00,0.0,WeatherDisplay:10.37,2013-08-16 10:04:00,
2013-08-16 06:09:00,58.3,52.8,30.04,South,176,0.0,0.0,82,0.00,SCT,BKN,0.00,0.0,WeatherDisplay:10.37,2013-08-16 10:09:00,
2013-08-16 06:14:00,58.1,52.6,30.04,South,176,0.0,0.0,82,0.00,SCT,BKN,0.00,0.0,WeatherDisplay:10.37,2013-08-16 10:14:00,
2013-08-16 06:19:00,57.9,52.5,30.04,South,176,0.0,0.0,82,0.00,SCT,BKN,0.00,0.0,WeatherDisplay:10.37,2013-08-16 10:19:00,
2013-08-16 06:24:00,57.7,52.6,30.04,South,185,0.0,0.0,83,0.00,SCT,BKN,0.00,0.0,WeatherDisplay:10.37,2013-08-16 10:24:00,
2013-08-16 06:29:00,57.4,52.3,30.05,South,185,0.0,0.0,83,0.00,SCT,BKN,0.00,0.0,WeatherDisplay:10.37,2013-08-16 10:29:00,
2013-08-16 06:34:00,57.4,52.3,30.05,South,190,0.0,0.0,83,0.00,SCT,BKN,0.00,0.0,WeatherDisplay:10.37,2013-08-16 10:34:00,
2013-08-16 06:39:00,57.4,52.3,30.06,South,191,0.0,0.0,83,0.00,SCT,BKN,0.00,0.0,WeatherDisplay:10.37,2013-08-16 10:39:00,
2013-08-16 06:44:00,57.2,52.1,30.06,South,177,0.0,0.0,83,0.00,SCT,BKN,0.00,0.0,WeatherDisplay:10.37,2013-08-16 10:44:00,
2013-08-16 06:49:00,57.4,52.6,30.06,South,178,0.0,0.0,84,0.00,SCT,BKN,0.00,0.0,WeatherDisplay:10.37,2013-08-16 10:49:00,
2013-08-16 06:54:00,57.4,52.6,30.06,South,187,0.0,1.1,84,0.00,SCT,BKN,0.00,0.0,WeatherDisplay:10.37,2013-08-16 10:54:00,
2013-08-16 06:59:00,57.2,52.4,30.06,South,185,0.0,0.0,84,0.00,SCT,BKN,0.00,0.0,WeatherDisplay:10.37,2013-08-16 10:59:00,
2013-08-16 07:04:00,57.0,52.2,30.06,SSW,192,0.0,0.0,84,0.00,SCT,BKN,0.00,0.0,WeatherDisplay:10.37,2013-08-16 11:04:00,
2013-08-16 07:09:00,57.4,52.6,30.06,SSW,192,0.0,0.0,84,0.00,SCT,BKN,0.00,0.0,WeatherDisplay:10.37,2013-08-16 11:09:00,
2013-08-16 07:14:00,57.4,52.9,30.06,South,191,0.0,0.0,85,0.00,SCT,BKN,0.00,0.0,WeatherDisplay:10.37,2013-08-16 11:14:00,
2013-08-16 07:19:00,57.6,53.1,30.06,South,190,0.0,0.0,85,0.00,BKN,,0.00,0.9,WeatherDisplay:10.37,2013-08-16 11:19:00,
2013-08-16 07:24:00,57.7,53.3,30.06,South,190,0.0,0.0,85,0.00,BKN,,0.00,3.4,WeatherDisplay:10.37,2013-08-16 11:24:00,
2013-08-16 07:29:00,57.9,53.4,30.06,South,190,0.0,0.0,85,0.00,BKN,,0.00,5.8,WeatherDisplay:10.37,2013-08-16 11:29:00,
2013-08-16 07:34:00,58.3,53.8,30.06,South,190,0.0,0.0,85,0.00,BKN,,0.00,7.0,WeatherDisplay:10.37,2013-08-16 11:34:00,
2013-08-16 07:39:00,58.6,54.5,30.06,South,190,0.0,0.0,86,0.00,BKN,,0.00,6.6,WeatherDisplay:10.37,2013-08-16 11:39:00,
2013-08-16 07:44:00,58.8,54.6,30.06,South,185,0.2,1.3,86,0.00,BKN,,0.00,8.4,WeatherDisplay:10.37,2013-08-16 11:44:00,
2013-08-16 07:49:00,59.2,55.0,30.06,SSW,211,0.2,1.1,86,0.00,BKN,,0.00,16.0,WeatherDisplay:10.37,2013-08-16 11:49:00,
2013-08-16 07:54:00,59.7,55.2,30.06,SSW,196,0.3,1.1,85,0.00,BKN,,0.00,17.6,WeatherDisplay:10.37,2013-08-16 11:54:00,
2013-08-16 07:59:00,60.1,55.2,30.06,SSW,193,0.8,2.4,84,0.00,BKN,,0.00,18.1,WeatherDisplay:10.37,2013-08-16 11:59:00,
2013-08-16 08:04:00,60.8,55.9,30.06,South,191,0.1,0.0,84,0.00,BKN,,0.00,19.8,WeatherDisplay:10.37,2013-08-16 12:04:00,
2013-08-16 08:09:00,61.3,56.1,30.06,South,173,0.5,2.3,83,0.00,BKN,,0.00,29.8,WeatherDisplay:10.37,2013-08-16 12:09:00,
2013-08-16 08:14:00,61.7,56.1,30.06,SSW,193,0.3,1.3,82,0.00,BKN,,0.00,32.7,WeatherDisplay:10.37,2013-08-16 12:14:00,
2013-08-16 08:19:00,62.1,55.8,30.06,SSW,193,0.2,2.3,80,0.00,BKN,,0.00,52.8,WeatherDisplay:10.37,2013-08-16 12:19:00,
2013-08-16 08:24:00,62.8,56.5,30.06,South,179,0.3,1.1,80,0.00,BKN,,0.00,43.7,WeatherDisplay:10.37,2013-08-16 12:24:00,
2013-08-16 08:29:00,63.1,56.5,30.06,SSW,195,0.8,1.1,79,0.00,BKN,,0.00,69.9,WeatherDisplay:10.37,2013-08-16 12:29:00,
2013-08-16 08:34:00,63.5,57.2,30.06,South,189,0.4,2.3,80,0.00,BKN,,0.00,71.3,WeatherDisplay:10.37,2013-08-16 12:34:00,
2013-08-16 08:39:00,64.0,57.4,30.06,South,189,0.5,1.1,79,0.00,BKN,,0.00,73.4,WeatherDisplay:10.37,2013-08-16 12:39:00,
2013-08-16 08:44:00,64.0,57.4,30.06,South,189,0.2,2.3,79,0.00,BKN,,0.00,71.1,WeatherDisplay:10.37,2013-08-16 12:44:00,
2013-08-16 08:49:00,64.2,56.9,30.07,SSW,192,0.0,2.3,77,0.00,BKN,,0.00,57.8,WeatherDisplay:10.37,2013-08-16 12:49:00,
2013-08-16 08:54:00,64.8,57.7,30.07,WNW,297,1.7,4.6,78,0.00,BKN,,0.00,146.0,WeatherDisplay:10.37,2013-08-16 12:54:00,
2013-08-16 08:59:00,65.1,57.7,30.07,SW,216,0.0,1.1,77,0.00,BKN,,0.00,268.2,WeatherDisplay:10.37,2013-08-16 12:59:00,
2013-08-16 09:04:00,65.5,57.0,30.07,SW,223,0.1,1.3,74,0.00,BKN,,0.00,292.9,WeatherDisplay:10.37,2013-08-16 13:04:00,
2013-08-16 09:09:00,65.8,56.9,30.07,SSW,195,0.2,1.1,73,0.00,BKN,,0.00,94.7,WeatherDisplay:10.37,2013-08-16 13:09:00,
2013-08-16 09:14:00,66.4,57.1,30.07,SSE,151,0.0,1.1,72,0.00,BKN,,0.00,339.9,WeatherDisplay:10.37,2013-08-16 13:14:00,
2013-08-16 09:19:00,66.9,57.2,30.07,South,184,0.6,1.1,71,0.00,SCT,BKN,0.00,76.0,WeatherDisplay:10.37,2013-08-16 13:19:00,
2013-08-16 09:24:00,66.9,57.6,30.07,WNW,283,1.1,2.3,72,0.00,SCT,BKN,0.00,361.2,WeatherDisplay:10.37,2013-08-16 13:24:00,
2013-08-16 09:29:00,67.1,57.0,30.07,SSW,200,1.0,2.3,70,0.00,SCT,BKN,0.00,127.0,WeatherDisplay:10.37,2013-08-16 13:29:00,
2013-08-16 09:34:00,66.7,55.8,30.07,SSW,207,0.9,2.3,68,0.00,SCT,BKN,0.00,282.3,WeatherDisplay:10.37,2013-08-16 13:34:00,
2013-08-16 09:39:00,66.9,56.8,30.07,South,184,0.7,3.5,70,0.00,SCT,BKN,0.00,381.7,WeatherDisplay:10.37,2013-08-16 13:39:00,
2013-08-16 09:44:00,67.3,57.2,30.08,SSW,193,0.5,2.3,70,0.00,SCT,BKN,0.00,441.9,WeatherDisplay:10.37,2013-08-16 13:44:00,
2013-08-16 09:49:00,68.0,56.6,30.08,SSW,204,0.8,3.5,67,0.00,SCT,BKN,0.00,459.2,WeatherDisplay:10.37,2013-08-16 13:49:00,
2013-08-16 09:54:00,68.5,57.1,30.08,South,170,1.4,3.5,67,0.00,SCT,BKN,0.00,456.6,WeatherDisplay:10.37,2013-08-16 13:54:00,
2013-08-16 09:59:00,68.7,56.9,30.08,SSW,202,1.5,2.3,66,0.00,SCT,BKN,0.00,508.1,WeatherDisplay:10.37,2013-08-16 13:59:00,
2013-08-16 10:04:00,69.3,56.1,30.08,SSW,195,0.9,4.6,63,0.00,SCT,BKN,0.00,576.4,WeatherDisplay:10.37,2013-08-16 14:04:00,
2013-08-16 10:09:00,70.2,56.5,30.08,WSW,257,1.3,3.5,62,0.00,SCT,BKN,0.00,656.9,WeatherDisplay:10.37,2013-08-16 14:09:00,
2013-08-16 10:14:00,70.5,56.0,30.08,SW,233,1.3,5.8,60,0.00,SCT,BKN,0.00,711.9,WeatherDisplay:10.37,2013-08-16 14:14:00,
2013-08-16 10:19:00,71.2,55.2,30.08,West,269,0.6,3.5,57,0.00,SCT,BKN,0.00,661.5,WeatherDisplay:10.37,2013-08-16 14:19:00,
2013-08-16 10:24:00,71.2,55.7,30.08,SSE,162,1.5,5.8,58,0.00,SCT,BKN,0.00,440.9,WeatherDisplay:10.37,2013-08-16 14:24:00,
2013-08-16 10:29:00,71.2,55.7,30.08,SSW,207,0.5,1.1,58,0.00,SCT,BKN,0.00,256.6,WeatherDisplay:10.37,2013-08-16 14:29:00,
2013-08-16 10:34:00,71.1,56.5,30.08,SW,219,0.1,1.1,60,0.00,SCT,BKN,0.00,698.3,WeatherDisplay:10.37,2013-08-16 14:34:00,
2013-08-16 10:39:00,71.4,56.8,30.08,NW,307,4.1,4.9,60,0.00,SCT,BKN,0.00,690.0,WeatherDisplay:10.37,2013-08-16 14:39:00,
2013-08-16 10:44:00,71.8,54.2,30.08,SSW,204,2.5,6.9,54,0.00,SCT,BKN,0.00,466.5,WeatherDisplay:10.37,2013-08-16 14:44:00,
2013-08-16 10:49:00,70.9,54.9,30.08,SSW,210,2.4,6.9,57,0.00,SCT,BKN,0.00,733.9,WeatherDisplay:10.37,2013-08-16 14:49:00,
2013-08-16 10:54:00,71.2,55.7,30.08,SW,233,0.8,6.9,58,0.00,SCT,BKN,0.00,725.8,WeatherDisplay:10.37,2013-08-16 14:54:00,
2013-08-16 10:59:00,72.1,55.6,30.08,West,261,1.4,3.8,56,0.00,SCT,BKN,0.00,755.5,WeatherDisplay:10.37,2013-08-16 14:59:00,
2013-08-16 11:04:00,72.1,55.6,30.08,SW,230,1.6,4.6,56,0.00,SCT,BKN,0.00,817.4,WeatherDisplay:10.37,2013-08-16 15:04:00,
2013-08-16 11:09:00,72.1,54.6,30.08,WSW,252,2.4,3.5,54,0.00,SCT,BKN,0.00,235.6,WeatherDisplay:10.37,2013-08-16 15:09:00,
2013-08-16 11:14:00,72.0,56.4,30.08,NW,322,2.5,4.9,58,0.00,SCT,BKN,0.00,843.3,WeatherDisplay:10.37,2013-08-16 15:14:00,
2013-08-16 11:19:00,72.1,56.5,30.08,South,181,1.7,3.5,58,0.00,SCT,BKN,0.00,906.5,WeatherDisplay:10.37,2013-08-16 15:19:00,
2013-08-16 11:24:00,73.2,57.1,30.08,WNW,294,5.7,7.9,57,0.00,SCT,BKN,0.00,1032.5,WeatherDisplay:10.37,2013-08-16 15:24:00,
2013-08-16 11:29:00,72.9,55.2,30.08,NW,306,3.8,8.1,54,0.00,SCT,BKN,0.00,316.1,WeatherDisplay:10.37,2013-08-16 15:29:00,
2013-08-16 11:34:00,72.1,56.1,30.08,WSW,241,0.7,3.5,57,0.00,SCT,BKN,0.00,238.7,WeatherDisplay:10.37,2013-08-16 15:34:00,
2013-08-16 11:39:00,71.6,55.6,30.08,NW,313,0.7,4.6,57,0.00,SCT,BKN,0.00,830.3,WeatherDisplay:10.37,2013-08-16 15:39:00,
2013-08-16 11:44:00,72.1,57.0,30.08,WNW,291,2.1,3.5,59,0.00,SCT,BKN,0.00,482.8,WeatherDisplay:10.37,2013-08-16 15:44:00,
2013-08-16 11:49:00,72.1,56.1,30.08,SW,224,0.5,3.5,57,0.00,SCT,BKN,0.00,294.0,WeatherDisplay:10.37,2013-08-16 15:49:00,
2013-08-16 11:54:00,72.3,56.2,30.08,NW,313,4.1,10.4,57,0.00,SCT,BKN,0.00,974.5,WeatherDisplay:10.37,2013-08-16 15:54:00,
2013-08-16 11:59:00,73.4,57.2,30.08,West,267,0.0,1.1,57,0.00,SCT,BKN,0.00,997.2,WeatherDisplay:10.37,2013-08-16 15:59:00,
2013-08-16 12:04:00,74.3,56.6,30.08,WNW,291,1.1,3.0,54,0.00,SCT,BKN,0.00,1015.8,WeatherDisplay:10.37,2013-08-16 16:04:00,
2013-08-16 12:09:00,75.0,56.7,30.08,South,176,1.0,5.8,53,0.00,SCT,BKN,0.00,1040.2,WeatherDisplay:10.37,2013-08-16 16:09:00,
2013-08-16 12:14:00,75.9,57.0,30.08,WNW,302,3.0,4.6,52,0.00,SCT,BKN,0.00,1130.8,WeatherDisplay:10.37,2013-08-16 16:14:00,
2013-08-16 12:19:00,76.3,56.8,30.08,WNW,282,0.3,2.5,51,0.00,SCT,BKN,0.00,654.1,WeatherDisplay:10.37,2013-08-16 16:19:00,
2013-08-16 12:24:00,76.3,57.4,30.08,WNW,289,4.2,7.5,52,0.00,SCT,BKN,0.00,318.9,WeatherDisplay:10.37,2013-08-16 16:24:00,
2013-08-16 12:29:00,75.0,55.7,30.08,WNW,296,2.1,4.6,51,0.00,SCT,BKN,0.00,289.8,WeatherDisplay:10.37,2013-08-16 16:29:00,
2013-08-16 12:34:00,74.8,55.5,30.08,SSE,153,1.8,2.3,51,0.00,SCT,BKN,0.00,1154.4,WeatherDisplay:10.37,2013-08-16 16:34:00,
2013-08-16 12:39:00,75.2,56.9,30.08,NW,312,2.0,6.2,53,0.00,SCT,BKN,0.00,1136.2,WeatherDisplay:10.37,2013-08-16 16:39:00,
2013-08-16 12:44:00,75.7,56.9,30.08,South,189,1.6,2.3,52,0.00,SCT,BKN,0.00,1124.8,WeatherDisplay:10.37,2013-08-16 16:44:00,
2013-08-16 12:49:00,76.5,57.0,30.08,West,275,1.5,9.2,51,0.00,SCT,BKN,0.00,1163.5,WeatherDisplay:10.37,2013-08-16 16:49:00,
2013-08-16 12:55:00,77.0,54.6,30.08,West,271,4.5,6.9,46,0.00,SCT,BKN,0.00,1146.0,WeatherDisplay:10.37,2013-08-16 16:55:00,
2013-08-16 13:00:00,77.2,56.5,30.08,NE,39,0.0,4.6,49,0.00,SCT,BKN,0.00,1159.3,WeatherDisplay:10.37,2013-08-16 17:00:00,
2013-08-16 13:05:00,78.6,55.5,30.08,North,2,3.0,5.8,45,0.00,SCT,BKN,0.00,1153.0,WeatherDisplay:10.37,2013-08-16 17:05:00,
2013-08-16 13:10:00,80.4,57.1,30.07,NNW,327,1.5,2.3,45,0.00,SCT,BKN,0.00,1168.8,WeatherDisplay:10.37,2013-08-16 17:10:00,
2013-08-16 13:15:00,79.3,56.8,30.08,NW,304,4.1,5.8,46,0.00,SCT,BKN,0.00,399.3,WeatherDisplay:10.37,2013-08-16 17:15:00,
2013-08-16 13:20:00,77.2,56.0,30.08,WNW,294,2.7,4.6,48,0.00,BKN,,0.00,238.0,WeatherDisplay:10.37,2013-08-16 17:20:00,
2013-08-16 13:25:00,75.9,55.9,30.07,NNW,334,3.2,4.6,50,0.00,BKN,,0.00,236.3,WeatherDisplay:10.37,2013-08-16 17:25:00,
2013-08-16 13:30:00,75.7,56.9,30.07,NW,319,1.3,3.5,52,0.00,BKN,,0.00,283.2,WeatherDisplay:10.37,2013-08-16 17:30:00,
2013-08-16 13:35:00,75.9,57.6,30.07,NW,321,0.0,0.0,53,0.00,BKN,,0.00,325.2,WeatherDisplay:10.37,2013-08-16 17:35:00,
2013-08-16 13:40:00,77.4,60.9,30.07,NW,317,0.7,2.3,57,0.00,BKN,,0.00,1181.7,WeatherDisplay:10.37,2013-08-16 17:40:00,
2013-08-16 13:45:00,79.3,59.6,30.07,NW,316,1.4,2.0,51,0.00,BKN,,0.00,1178.3,WeatherDisplay:10.37,2013-08-16 17:45:00,
2013-08-16 13:50:00,78.6,57.3,30.07,NW,316,4.8,6.9,48,0.00,BKN,,0.00,1234.5,WeatherDisplay:10.37,2013-08-16 17:50:00,
2013-08-16 13:55:00,79.5,58.7,30.07,WNW,293,0.2,1.1,49,0.00,BKN,,0.00,1152.2,WeatherDisplay:10.37,2013-08-16 17:55:00,
2013-08-16 14:00:00,79.7,58.3,30.07,SSW,211,0.0,0.0,48,0.00,BKN,,0.00,1177.8,WeatherDisplay:10.37,2013-08-16 18:00:00,
2013-08-16 14:05:00,78.6,56.1,30.07,South,174,1.3,2.3,46,0.00,BKN,,0.00,439.5,WeatherDisplay:10.37,2013-08-16 18:05:00,
2013-08-16 14:10:00,78.1,55.6,30.08,WSW,258,2.2,2.3,46,0.00,BKN,,0.00,1219.7,WeatherDisplay:10.37,2013-08-16 18:10:00,
2013-08-16 14:15:00,79.5,55.7,30.07,NW,313,1.9,4.6,44,0.00,BKN,,0.00,1222.3,WeatherDisplay:10.37,2013-08-16 18:15:00,
2013-08-16 14:20:00,80.4,55.2,30.07,NW,304,0.9,1.1,42,0.00,BKN,,0.00,1250.8,WeatherDisplay:10.37,2013-08-16 18:20:00,
2013-08-16 14:25:00,82.2,57.5,30.07,SW,231,0.0,3.5,43,0.00,BKN,,0.00,1222.3,WeatherDisplay:10.37,2013-08-16 18:25:00,
2013-08-16 14:30:00,80.6,56.7,30.07,WNW,288,0.3,2.2,44,0.00,BKN,,0.00,348.8,WeatherDisplay:10.37,2013-08-16 18:30:00,
2013-08-16 14:35:00,79.3,56.2,30.08,WNW,292,2.9,4.6,45,0.00,BKN,,0.00,322.3,WeatherDisplay:10.37,2013-08-16 18:35:00,
2013-08-16 14:40:00,77.4,55.0,30.07,NW,305,3.4,5.8,46,0.00,BKN,,0.00,271.3,WeatherDisplay:10.37,2013-08-16 18:40:00,
2013-08-16 14:45:00,76.5,55.9,30.08,WNW,301,2.5,4.6,49,0.00,BKN,,0.00,330.2,WeatherDisplay:10.37,2013-08-16 18:45:00,
2013-08-16 14:50:00,77.4,57.3,30.07,WNW,291,1.4,3.5,50,0.00,BKN,,0.00,1116.5,WeatherDisplay:10.37,2013-08-16 18:50:00,
2013-08-16 14:55:00,77.5,55.7,30.07,WNW,301,1.4,3.5,47,0.00,BKN,,0.00,1137.1,WeatherDisplay:10.37,2013-08-16 18:55:00,
2013-08-16 15:00:00,78.4,57.7,30.06,WNW,298,0.2,1.3,49,0.00,BKN,,0.00,1098.0,WeatherDisplay:10.37,2013-08-16 19:00:00,
2013-08-16 15:05:00,79.9,56.6,30.07,North,0,0.0,1.1,45,0.00,BKN,,0.00,1108.7,WeatherDisplay:10.37,2013-08-16 19:05:00,
2013-08-16 15:10:00,81.3,57.3,30.07,West,275,0.2,1.1,44,0.00,BKN,,0.00,1129.4,WeatherDisplay:10.37,2013-08-16 19:10:00,
2013-08-16 15:15:00,82.8,58.6,30.07,NNW,330,0.7,2.3,44,0.00,BKN,,0.00,522.9,WeatherDisplay:10.37,2013-08-16 19:15:00,
2013-08-16 15:20:00,82.4,57.7,30.07,NW,313,1.5,4.6,43,0.00,SCT,BKN,0.00,236.8,WeatherDisplay:10.37,2013-08-16 19:20:00,
2013-08-16 15:25:00,81.1,57.2,30.07,NNW,327,2.5,3.5,44,0.00,SCT,BKN,0.00,263.1,WeatherDisplay:10.37,2013-08-16 19:25:00,
2013-08-16 15:30:00,80.4,58.9,30.07,NNW,333,1.2,2.3,48,0.00,SCT,BKN,0.00,280.4,WeatherDisplay:10.37,2013-08-16 19:30:00,
2013-08-16 15:35:00,80.2,60.5,30.07,NNW,337,0.0,0.0,51,0.00,SCT,BKN,0.00,284.2,WeatherDisplay:10.37,2013-08-16 19:35:00,
2013-08-16 15:40:00,80.8,60.4,30.07,NNW,335,0.0,0.0,50,0.00,SCT,BKN,0.00,261.5,WeatherDisplay:10.37,2013-08-16 19:40:00,
2013-08-16 15:45:00,81.1,61.3,30.07,NNW,336,0.0,0.0,51,0.00,SCT,BKN,0.00,209.2,WeatherDisplay:10.37,2013-08-16 19:45:00,
2013-08-16 15:50:00,80.4,58.9,30.07,NW,318,0.0,0.0,48,0.00,SCT,BKN,0.00,199.6,WeatherDisplay:10.37,2013-08-16 19:50:00,
2013-08-16 15:55:00,79.7,56.5,30.07,NW,304,1.4,3.5,45,0.00,SCT,BKN,0.00,185.8,WeatherDisplay:10.37,2013-08-16 19:55:00,
2013-08-16 16:00:00,78.6,58.4,30.07,NW,326,0.9,1.3,50,0.00,SCT,BKN,0.00,178.6,WeatherDisplay:10.37,2013-08-16 20:00:00,
2013-08-16 16:05:00,78.1,57.4,30.07,NNW,330,0.8,2.4,49,0.00,SCT,BKN,0.00,188.7,WeatherDisplay:10.37,2013-08-16 20:05:00,
2013-08-16 16:10:00,77.7,58.1,30.07,NW,315,0.0,0.0,51,0.00,SCT,BKN,0.00,177.7,WeatherDisplay:10.37,2013-08-16 20:10:00,
2013-08-16 16:15:00,77.5,59.1,30.07,WNW,297,0.0,0.0,53,0.00,SCT,BKN,0.00,170.5,WeatherDisplay:10.37,2013-08-16 20:15:00,
2013-08-16 16:20:00,76.8,57.9,30.07,NW,315,0.7,2.3,52,0.00,SCT,BKN,0.00,177.7,WeatherDisplay:10.37,2013-08-16 20:20:00,
2013-08-16 16:25:00,76.6,58.7,30.07,NW,323,0.0,0.0,54,0.00,SCT,BKN,0.00,176.0,WeatherDisplay:10.37,2013-08-16 20:25:00,
2013-08-16 16:30:00,77.4,59.9,30.07,NW,322,0.0,0.0,55,0.00,SCT,BKN,0.00,170.8,WeatherDisplay:10.37,2013-08-16 20:30:00,
2013-08-16 16:35:00,77.7,60.3,30.07,NW,323,0.0,0.0,55,0.00,SCT,BKN,0.00,144.2,WeatherDisplay:10.37,2013-08-16 20:35:00,
2013-08-16 16:40:00,78.1,60.1,30.07,NW,322,0.0,0.0,54,0.00,SCT,BKN,0.00,143.0,WeatherDisplay:10.37,2013-08-16 20:40:00,
2013-08-16 16:45:00,77.7,58.1,30.07,NW,323,0.0,0.0,51,0.00,SCT,BKN,0.00,131.0,WeatherDisplay:10.37,2013-08-16 20:45:00,
2013-08-16 16:50:00,77.5,58.0,30.07,NW,323,0.0,0.0,51,0.00,SCT,BKN,0.00,139.5,WeatherDisplay:10.37,2013-08-16 20:50:00,
2013-08-16 16:55:00,77.5,57.4,30.07,North,349,0.0,0.0,50,0.00,SCT,BKN,0.00,158.7,WeatherDisplay:10.37,2013-08-16 20:55:00,
2013-08-16 17:00:00,77.2,58.2,30.07,North,6,0.0,0.0,52,0.00,SCT,BKN,0.00,187.4,WeatherDisplay:10.37,2013-08-16 21:00:00,
2013-08-16 17:05:00,77.2,59.2,30.06,NNE,13,0.0,0.0,54,0.00,SCT,BKN,0.00,131.9,WeatherDisplay:10.37,2013-08-16 21:05:00,
2013-08-16 17:10:00,76.8,58.4,30.07,SE,139,0.3,1.1,53,0.00,SCT,BKN,0.00,134.7,WeatherDisplay:10.37,2013-08-16 21:10:00,
2013-08-16 17:15:00,76.3,57.9,30.07,ENE,57,2.4,3.9,53,0.00,SCT,BKN,0.00,100.5,WeatherDisplay:10.37,2013-08-16 21:15:00,
2013-08-16 17:20:00,74.8,57.6,30.07,SSW,199,0.5,6.9,55,0.00,SCT,BKN,0.00,92.2,WeatherDisplay:10.37,2013-08-16 21:20:00,
2013-08-16 17:25:00,75.0,58.8,30.07,West,261,0.0,3.5,57,0.00,SCT,BKN,0.00,95.6,WeatherDisplay:10.37,2013-08-16 21:25:00,
2013-08-16 17:30:00,75.0,56.7,30.07,WNW,302,0.7,2.3,53,0.00,SCT,BKN,0.00,77.4,WeatherDisplay:10.37,2013-08-16 21:30:00,
2013-08-16 17:35:00,75.2,57.9,30.07,NW,318,0.0,0.0,55,0.00,SCT,BKN,0.00,76.1,WeatherDisplay:10.37,2013-08-16 21:35:00,
2013-08-16 17:40:00,75.7,58.9,30.07,NW,320,0.0,0.0,56,0.00,SCT,BKN,0.00,76.8,WeatherDisplay:10.37,2013-08-16 21:40:00,
2013-08-16 17:45:00,76.1,59.3,30.07,NW,319,0.0,0.0,56,0.00,SCT,BKN,0.00,70.6,WeatherDisplay:10.37,2013-08-16 21:45:00,
2013-08-16 17:50:00,76.3,59.4,30.08,NW,318,0.0,0.0,56,0.00,SCT,BKN,0.00,64.7,WeatherDisplay:10.37,2013-08-16 21:50:00,
2013-08-16 17:55:00,76.1,59.3,30.07,NW,319,0.0,0.0,56,0.00,SCT,BKN,0.00,63.4,WeatherDisplay:10.37,2013-08-16 21:55:00,
2013-08-16 18:00:00,75.0,60.7,30.07,North,358,0.0,0.0,61,0.00,SCT,BKN,0.00,75.1,WeatherDisplay:10.37,2013-08-16 22:00:00,
2013-08-16 18:05:00,74.1,61.2,30.08,North,358,0.0,0.0,64,0.00,SCT,BKN,0.00,73.1,WeatherDisplay:10.37,2013-08-16 22:05:00,
2013-08-16 18:10:00,73.6,60.6,30.08,NNE,26,0.0,0.0,64,0.00,SCT,BKN,0.00,73.1,WeatherDisplay:10.37,2013-08-16 22:10:00,
2013-08-16 18:15:00,73.4,61.3,30.08,NNE,26,0.0,0.0,66,0.00,SCT,BKN,0.00,96.7,WeatherDisplay:10.37,2013-08-16 22:15:00,
2013-08-16 18:20:00,73.6,61.5,30.08,NNE,26,0.0,0.0,66,0.00,SCT,BKN,0.00,94.3,WeatherDisplay:10.37,2013-08-16 22:20:00,
2013-08-16 18:25:00,73.9,61.0,30.08,NNE,26,0.0,0.0,64,0.00,SCT,BKN,0.00,90.4,WeatherDisplay:10.37,2013-08-16 22:25:00,
2013-08-16 18:30:00,74.5,61.1,30.07,NNE,26,0.0,0.0,63,0.00,SCT,BKN,0.00,91.0,WeatherDisplay:10.37,2013-08-16 22:30:00,
2013-08-16 18:35:00,74.8,59.5,30.07,NNE,26,0.0,0.0,59,0.00,SCT,BKN,0.00,96.2,WeatherDisplay:10.37,2013-08-16 22:35:00,
2013-08-16 18:40:00,75.4,59.6,30.08,NNW,347,0.0,0.0,58,0.00,SCT,BKN,0.00,76.3,WeatherDisplay:10.37,2013-08-16 22:40:00,
2013-08-16 18:45:00,75.9,59.6,30.08,NNW,347,0.0,0.0,57,0.00,SCT,BKN,0.00,72.0,WeatherDisplay:10.37,2013-08-16 22:45:00,
2013-08-16 18:50:00,76.3,58.4,30.08,NNW,346,0.0,0.0,54,0.00,SCT,BKN,0.00,68.9,WeatherDisplay:10.37,2013-08-16 22:50:00,
2013-08-16 18:55:00,76.6,58.7,30.08,NNW,346,0.0,0.0,54,0.00,SCT,BKN,0.00,56.8,WeatherDisplay:10.37,2013-08-16 22:55:00,
2013-08-16 19:00:00,76.8,59.4,30.08,NNW,347,0.0,0.0,55,0.00,SCT,BKN,0.00,47.6,WeatherDisplay:10.37,2013-08-16 23:00:00,
2013-08-16 19:06:00,76.3,57.9,30.08,NNW,345,0.0,0.0,53,0.00,SCT,BKN,0.00,39.7,WeatherDisplay:10.37,2013-08-16 23:06:00,
2013-08-16 19:11:00,75.6,57.7,30.08,South,176,0.1,2.3,54,0.00,SCT,BKN,0.00,35.4,WeatherDisplay:10.37,2013-08-16 23:11:00,
2013-08-16 19:16:00,75.0,58.3,30.08,South,176,0.0,0.0,56,0.00,SCT,BKN,0.00,31.9,WeatherDisplay:10.37,2013-08-16 23:16:00,
2013-08-16 19:21:00,74.8,59.1,30.08,South,176,0.0,0.0,58,0.00,SCT,BKN,0.00,28.0,WeatherDisplay:10.37,2013-08-16 23:21:00,
2013-08-16 19:26:00,75.0,60.2,30.08,South,176,0.0,0.0,60,0.00,SCT,BKN,0.00,36.3,WeatherDisplay:10.37,2013-08-16 23:26:00,
2013-08-16 19:31:00,74.8,60.0,30.08,South,176,0.0,0.0,60,0.00,SCT,BKN,0.00,23.3,WeatherDisplay:10.37,2013-08-16 23:31:00,
2013-08-16 19:36:00,74.3,60.0,30.08,South,176,0.0,0.0,61,0.00,SCT,BKN,0.00,18.6,WeatherDisplay:10.37,2013-08-16 23:36:00,
2013-08-16 19:41:00,73.4,59.6,30.08,South,171,0.0,0.0,62,0.00,SCT,BKN,0.00,15.9,WeatherDisplay:10.37,2013-08-16 23:41:00,
2013-08-16 19:46:00,72.7,59.8,30.08,South,171,0.0,0.0,64,0.00,SCT,BKN,0.00,11.9,WeatherDisplay:10.37,2013-08-16 23:46:00,
2013-08-16 19:51:00,72.0,60.0,30.08,South,171,0.0,0.0,66,0.00,SCT,BKN,0.00,9.3,WeatherDisplay:10.37,2013-08-16 23:51:00,
2013-08-16 19:56:00,71.2,60.5,30.08,South,171,0.0,0.0,69,0.00,SCT,BKN,0.00,6.2,WeatherDisplay:10.37,2013-08-16 23:56:00,
2013-08-16 20:01:00,70.5,60.3,30.08,South,171,0.0,0.0,70,0.00,SCT,BKN,0.00,4.1,WeatherDisplay:10.37,2013-08-17 00:01:00,
2013-08-16 20:06:00,70.2,60.3,30.09,South,171,0.0,0.0,71,0.00,SCT,BKN,0.00,3.2,WeatherDisplay:10.37,2013-08-17 00:06:00,
2013-08-16 20:11:00,69.8,60.4,30.08,South,171,0.0,0.0,72,0.00,SCT,BKN,0.00,1.5,WeatherDisplay:10.37,2013-08-17 00:11:00,
2013-08-16 20:16:00,68.5,59.9,30.09,SSE,151,0.0,0.0,74,0.00,SCT,BKN,0.00,1.4,WeatherDisplay:10.37,2013-08-17 00:16:00,
2013-08-16 20:21:00,67.8,60.0,30.09,SSE,151,0.0,0.0,76,0.00,SCT,BKN,0.00,0.5,WeatherDisplay:10.37,2013-08-17 00:21:00,
2013-08-16 20:26:00,67.3,59.5,30.09,SSE,151,0.1,1.1,76,0.00,SCT,BKN,0.00,0.5,WeatherDisplay:10.37,2013-08-17 00:26:00,
2013-08-16 20:31:00,66.7,59.7,30.09,SE,142,0.0,0.0,78,0.00,SCT,BKN,0.00,0.0,WeatherDisplay:10.37,2013-08-17 00:31:00,
2013-08-16 20:36:00,66.0,59.3,30.09,SE,135,0.1,1.1,79,0.00,SCT,BKN,0.00,0.0,WeatherDisplay:10.37,2013-08-17 00:36:00,
2013-08-16 20:41:00,65.5,59.1,30.09,SE,136,0.0,0.0,80,0.00,SCT,BKN,0.00,0.0,WeatherDisplay:10.37,2013-08-17 00:41:00,
2013-08-16 20:46:00,64.9,59.3,30.09,SE,135,0.1,1.1,82,0.00,SCT,BKN,0.00,0.0,WeatherDisplay:10.37,2013-08-17 00:46:00,
2013-08-16 20:51:00,64.6,59.0,30.09,SE,135,0.0,0.0,82,0.00,SCT,BKN,0.00,0.0,WeatherDisplay:10.37,2013-08-17 00:51:00,
2013-08-16 20:56:00,64.4,59.1,30.10,SE,135,0.0,0.0,83,0.00,SCT,BKN,0.00,0.0,WeatherDisplay:10.37,2013-08-17 00:56:00,
2013-08-16 21:01:00,64.2,58.9,30.10,SE,135,0.0,0.0,83,0.00,SCT,BKN,0.00,0.0,WeatherDisplay:10.37,2013-08-17 01:01:00,
2013-08-16 21:06:00,64.0,59.4,30.10,SE,135,0.3,1.1,85,0.00,SCT,BKN,0.00,0.0,WeatherDisplay:10.37,2013-08-17 01:06:00,
2013-08-16 21:11:00,63.9,59.6,30.11,SE,135,0.1,1.1,86,0.00,SCT,BKN,0.00,0.0,WeatherDisplay:10.37,2013-08-17 01:11:00,
2013-08-16 21:16:00,63.7,59.7,30.10,SE,131,0.4,1.3,87,0.00,SCT,BKN,0.00,0.0,WeatherDisplay:10.37,2013-08-17 01:16:00,
2013-08-16 21:21:00,63.5,59.6,30.11,SE,133,0.0,0.0,87,0.00,FEW,BKN,0.00,0.0,WeatherDisplay:10.37,2013-08-17 01:21:00,
2013-08-16 21:26:00,63.1,59.2,30.11,SE,134,0.0,0.0,87,0.00,FEW,BKN,0.00,0.0,WeatherDisplay:10.37,2013-08-17 01:26:00,
2013-08-16 21:31:00,63.0,59.0,30.11,SE,133,0.0,0.0,87,0.00,FEW,BKN,0.00,0.0,WeatherDisplay:10.37,2013-08-17 01:31:00,
2013-08-16 21:36:00,62.8,58.9,30.11,SE,134,0.0,0.0,87,0.00,FEW,BKN,0.00,0.0,WeatherDisplay:10.37,2013-08-17 01:36:00,
2013-08-16 21:41:00,62.6,58.7,30.11,SE,134,0.0,0.0,87,0.00,FEW,BKN,0.00,0.0,WeatherDisplay:10.37,2013-08-17 01:41:00,
2013-08-16 21:46:00,62.4,58.8,30.11,SE,134,0.0,0.0,88,0.00,FEW,BKN,0.00,0.0,WeatherDisplay:10.37,2013-08-17 01:46:00,
2013-08-16 21:51:00,62.1,58.5,30.11,SE,132,0.3,1.1,88,0.00,FEW,BKN,0.00,0.0,WeatherDisplay:10.37,2013-08-17 01:51:00,
2013-08-16 21:56:00,61.9,58.6,30.11,SE,132,0.3,1.1,89,0.00,FEW,BKN,0.00,0.0,WeatherDisplay:10.37,2013-08-17 01:56:00,
2013-08-16 22:01:00,61.9,58.6,30.11,SE,132,0.0,0.0,89,0.00,FEW,BKN,0.00,0.0,WeatherDisplay:10.37,2013-08-17 02:01:00,
2013-08-16 22:06:00,61.9,58.6,30.11,SE,132,0.0,0.0,89,0.00,FEW,BKN,0.00,0.0,WeatherDisplay:10.37,2013-08-17 02:06:00,
2013-08-16 22:11:00,61.7,58.4,30.11,SE,132,0.0,0.0,89,0.00,FEW,BKN,0.00,0.0,WeatherDisplay:10.37,2013-08-17 02:11:00,
2013-08-16 22:16:00,61.5,58.2,30.11,SE,132,0.0,0.0,89,0.00,FEW,BKN,0.00,0.0,WeatherDisplay:10.37,2013-08-17 02:16:00,
2013-08-16 22:21:00,61.3,58.1,30.11,South,179,0.1,1.1,89,0.00,FEW,BKN,0.00,0.0,WeatherDisplay:10.37,2013-08-17 02:21:00,
2013-08-16 22:26:00,61.2,57.9,30.11,South,180,0.0,0.0,89,0.00,FEW,BKN,0.00,0.0,WeatherDisplay:10.37,2013-08-17 02:26:00,
2013-08-16 22:31:00,61.2,57.9,30.11,South,181,0.0,0.0,89,0.00,FEW,BKN,0.00,0.0,WeatherDisplay:10.37,2013-08-17 02:31:00,
2013-08-16 22:36:00,61.2,57.9,30.11,South,181,0.0,0.0,89,0.00,FEW,BKN,0.00,0.0,WeatherDisplay:10.37,2013-08-17 02:36:00,
2013-08-16 22:41:00,61.2,57.9,30.11,South,180,0.0,0.0,89,0.00,FEW,BKN,0.00,0.0,WeatherDisplay:10.37,2013-08-17 02:41:00,
2013-08-16 22:46:00,61.0,57.7,30.11,South,180,0.0,0.0,89,0.00,FEW,BKN,0.00,0.0,WeatherDisplay:10.37,2013-08-17 02:46:00,
2013-08-16 22:51:00,60.6,57.4,30.11,South,181,0.0,0.0,89,0.00,FEW,BKN,0.00,0.0,WeatherDisplay:10.37,2013-08-17 02:51:00,
2013-08-16 22:56:00,60.6,57.4,30.11,South,181,0.0,0.0,89,0.00,FEW,BKN,0.00,0.0,WeatherDisplay:10.37,2013-08-17 02:56:00,
2013-08-16 23:01:00,60.4,57.5,30.11,South,181,0.0,0.0,90,0.00,FEW,BKN,0.00,0.0,WeatherDisplay:10.37,2013-08-17 03:01:00,
2013-08-16 23:06:00,60.4,57.5,30.11,South,180,0.0,0.0,90,0.00,FEW,BKN,0.00,0.0,WeatherDisplay:10.37,2013-08-17 03:06:00,
2013-08-16 23:11:00,60.1,57.1,30.11,South,181,0.0,0.0,90,0.00,FEW,BKN,0.00,0.0,WeatherDisplay:10.37,2013-08-17 03:11:00,
2013-08-16 23:16:00,60.1,57.1,30.11,South,181,0.0,0.0,90,0.00,FEW,BKN,0.00,0.0,WeatherDisplay:10.37,2013-08-17 03:16:00,
2013-08-16 23:21:00,60.1,57.1,30.11,South,180,0.0,0.0,90,0.00,FEW,BKN,0.00,0.0,WeatherDisplay:10.37,2013-08-17 03:21:00,
2013-08-16 23:26:00,59.7,56.8,30.11,South,180,0.0,0.0,90,0.00,FEW,BKN,0.00,0.0,WeatherDisplay:10.37,2013-08-17 03:26:00,
2013-08-16 23:31:00,59.5,56.6,30.11,South,181,0.0,0.0,90,0.00,FEW,BKN,0.00,0.0,WeatherDisplay:10.37,2013-08-17 03:31:00,
2013-08-16 23:36:00,59.5,56.6,30.11,South,181,0.0,0.0,90,0.00,FEW,BKN,0.00,0.0,WeatherDisplay:10.37,2013-08-17 03:36:00,
2013-08-16 23:41:00,59.5,56.9,30.11,South,180,0.0,0.0,91,0.00,FEW,BKN,0.00,0.0,WeatherDisplay:10.37,2013-08-17 03:41:00,
2013-08-16 23:46:00,59.5,56.9,30.11,South,180,0.0,0.0,91,0.00,FEW,BKN,0.00,0.0,WeatherDisplay:10.37,2013-08-17 03:46:00,
2013-08-16 23:51:00,59.4,56.7,30.11,South,181,0.0,0.0,91,0.00,FEW,BKN,0.00,0.0,WeatherDisplay:10.37,2013-08-17 03:51:00,
2013-08-16 23:56:00,59.5,56.9,30.11,South,180,0.0,0.0,91,0.00,FEW,BKN,0.00,0.0,WeatherDisplay:10.37,2013-08-17 03:56:00,